Date String (YYYY-MM-DD hh:mm:ss) UTC,Instrument flags,Ambient pressure (hPa),Sample flow (lpm),Bypass flow (lpm),Sample temperature (°C),Ambient temperature (°C),ASC tube jacket temperature (°C),LED temperature (°C),Box temperature (°C),Sample RH (%),Span deviation,Mass concentration (μg/m³),Mass concentration (μg/m³),Mass concentration (μg/m³)
DateTimeUTC,F1_M11,P_M11,Q1_M11,Q2_M11,T1_M11,T2_M11,T3_M11,T4_M11,T5_M11,U1_M11,ZSPAN_M11,X0_M11,X2_M11,X1_M11
2021-12-11 12:00:00,,0821.8,4.99,0.00,22.1,21.6,00.0,31.1,23.7,04.6,0000.0,0007.45,0002.23,0001.39
2021-12-11 12:01:00,,0821.7,5.01,0.00,22.1,21.5,00.0,31.1,23.6,04.4,0000.0,0006.12,0002.18,0001.38
2021-12-11 12:02:00,,0821.8,4.99,0.00,22.0,21.4,00.0,31.1,23.5,04.1,0000.0,0005.80,0002.10,0001.32
2021-12-11 12:03:00,,0821.8,5.01,0.00,21.9,21.3,00.0,31.1,23.5,04.4,0000.0,0005.58,0002.02,0001.29
2021-12-11 12:04:00,,0821.8,4.99,0.00,21.9,21.2,00.0,31.1,23.4,04.7,0000.0,0005.39,0001.99,0001.28
2021-12-11 12:05:00,,0821.8,5.02,0.00,21.9,21.3,00.0,31.1,23.4,04.6,0000.0,0004.86,0001.96,0001.25
2021-12-11 12:06:00,,0821.8,5.00,0.00,22.0,22.0,00.0,31.1,23.7,04.6,0000.0,0004.32,0001.91,0001.23
2021-12-11 12:07:00,,0821.8,4.98,0.00,22.1,22.8,00.0,31.1,24.0,04.7,0000.0,0004.54,0001.95,0001.24
2021-12-11 12:08:00,,0821.8,5.01,0.00,22.3,23.0,00.0,31.1,24.2,04.5,0000.0,0004.65,0001.92,0001.23
2021-12-11 12:09:00,,0822.0,5.00,0.00,22.3,22.7,00.0,31.2,24.1,04.5,0000.0,0004.52,0001.87,0001.21
2021-12-11 12:10:00,,0821.9,4.99,0.00,22.3,22.4,00.0,31.2,24.0,04.5,0000.0,0004.03,0001.89,0001.19
2021-12-11 12:11:00,,0822.1,5.01,0.00,22.2,22.1,00.0,31.2,23.9,04.4,0000.0,0003.64,0001.84,0001.15
2021-12-11 12:12:00,,0821.8,4.99,0.00,22.2,21.9,00.0,31.2,23.8,04.2,0000.0,0003.56,0001.80,0001.13
2021-12-11 12:13:00,,0821.7,5.00,0.00,22.2,21.8,00.0,31.2,23.8,04.1,0000.0,0003.55,0001.80,0001.14
2021-12-11 12:14:00,,0821.7,5.01,0.00,22.1,21.6,00.0,31.1,23.6,04.0,0000.0,0003.54,0001.80,0001.13
2021-12-11 12:15:00,,0821.8,4.98,0.00,22.0,21.4,00.0,31.1,23.5,04.1,0000.0,0003.48,0001.74,0001.09
2021-12-11 12:16:00,,0821.8,5.00,0.00,21.9,21.2,00.0,31.1,23.4,04.1,0000.0,0003.35,0001.66,0001.07
2021-12-11 12:17:00,,0821.8,5.00,0.00,21.9,21.1,00.0,31.1,23.3,04.2,0000.0,0003.44,0001.66,0001.06
2021-12-11 12:18:00,,0822.0,5.01,0.00,21.9,21.3,00.0,31.1,23.4,04.2,0000.0,0003.72,0001.60,0001.02
2021-12-11 12:19:00,,0822.0,4.99,0.00,22.0,22.1,00.0,31.1,23.7,04.2,0000.0,0003.66,0001.52,0001.00
2021-12-11 12:20:00,,0821.9,5.00,0.00,22.1,22.9,00.0,31.1,24.0,04.3,0000.0,0003.68,0001.50,0000.99
2021-12-11 12:21:00,,0822.0,5.00,0.00,22.3,23.0,00.0,31.2,24.1,04.3,0000.0,0003.52,0001.46,0000.99
2021-12-11 12:22:00,,0821.8,4.99,0.00,22.3,22.7,00.0,31.2,24.1,04.4,0000.0,0003.58,0001.49,0001.00
2021-12-11 12:23:00,,0822.2,5.01,0.00,22.3,22.4,00.0,31.2,24.0,04.3,0000.0,0003.79,0001.53,0001.02
2021-12-11 12:24:00,,0821.8,4.99,0.00,22.2,22.2,00.0,31.2,23.9,04.4,0000.0,0004.00,0001.62,0001.04
2021-12-11 12:25:00,,0821.8,5.01,0.00,22.2,22.0,00.0,31.2,23.9,04.3,0000.0,0004.03,0001.65,0001.05
2021-12-11 12:26:00,,0821.8,5.00,0.00,22.2,21.8,00.0,31.2,23.8,04.3,0000.0,0004.19,0001.69,0001.07
2021-12-11 12:27:00,,0821.8,4.99,0.00,22.1,21.7,00.0,31.2,23.7,04.3,0000.0,0004.29,0001.72,0001.07
2021-12-11 12:28:00,,0821.8,5.01,0.00,22.1,21.5,00.0,31.2,23.7,04.3,0000.0,0004.14,0001.70,0001.08
2021-12-11 12:29:00,,0821.8,5.00,0.00,22.0,21.4,00.0,31.1,23.6,04.2,0000.0,0003.66,0001.68,0001.09
2021-12-11 12:30:00,,0821.8,5.00,0.00,22.0,21.3,00.0,31.1,23.5,04.2,0000.0,0004.76,0001.62,0001.07
2021-12-11 12:31:00,,0821.8,5.01,0.00,22.0,21.2,00.0,31.1,23.5,04.2,0000.0,0005.23,0001.59,0001.06
2021-12-11 12:32:00,,0821.8,4.99,0.00,22.0,21.5,00.0,31.1,23.6,04.3,0000.0,0005.21,0001.59,0001.06
2021-12-11 12:33:00,,0821.8,4.99,0.00,22.1,22.4,00.0,31.1,23.9,04.2,0000.0,0005.05,0001.54,0001.05
2021-12-11 12:34:00,,0821.9,5.01,0.00,22.2,23.2,00.0,31.2,24.2,04.2,0000.0,0004.82,0001.49,0001.04
2021-12-11 12:35:00,,0821.8,5.00,0.00,22.4,23.1,00.0,31.2,24.3,04.1,0000.0,0005.07,0001.41,0001.02
2021-12-11 12:36:00,,0821.8,5.00,0.00,22.4,22.8,00.0,31.2,24.2,04.1,0000.0,0005.85,0001.34,0001.00
2021-12-11 12:37:00,,0821.9,4.99,0.00,22.4,22.5,00.0,31.2,24.2,04.2,0000.0,0005.79,0001.31,0000.98
2021-12-11 12:38:00,,0821.8,5.00,0.00,22.3,22.3,00.0,31.2,24.1,04.2,0000.0,0005.64,0001.25,0000.97
2021-12-11 12:39:00,,0821.8,5.01,0.00,22.3,22.1,00.0,31.2,24.0,04.2,0000.0,0005.66,0001.21,0000.94
2021-12-11 12:40:00,,0821.8,5.00,0.00,22.3,21.9,00.0,31.2,23.9,04.2,0000.0,0006.39,0001.18,0000.93
2021-12-11 12:41:00,,0821.8,5.00,0.00,22.2,21.8,00.0,31.2,23.8,04.2,0000.0,0005.12,0001.20,0000.93
2021-12-11 12:42:00,,0821.8,5.00,0.00,22.2,21.6,00.0,31.2,23.7,04.2,0000.0,0004.24,0001.22,0000.93
2021-12-11 12:43:00,,0821.8,5.00,0.00,22.1,21.4,00.0,31.2,23.6,04.3,0000.0,0004.21,0001.19,0000.92
2021-12-11 12:44:00,,0821.8,5.00,0.00,22.0,21.2,00.0,31.2,23.4,04.5,0000.0,0004.15,0001.18,0000.91
2021-12-11 12:45:00,,0821.8,5.00,0.00,21.9,21.0,00.0,31.1,23.2,04.6,0000.0,0004.17,0001.17,0000.90
2021-12-11 12:46:00,,0821.7,5.00,0.00,21.9,21.5,00.0,31.1,23.4,04.7,0000.0,0003.68,0001.16,0000.89
2021-12-11 12:47:00,,0821.7,4.99,0.00,22.0,22.3,00.0,31.1,23.8,04.7,0000.0,0002.73,0001.16,0000.90
2021-12-11 12:48:00,,0821.8,5.01,0.00,22.2,23.1,00.0,31.2,24.1,04.6,0000.0,0002.61,0001.13,0000.90
2021-12-11 12:49:00,,0821.8,5.01,0.00,22.3,23.2,00.0,31.2,24.3,04.6,0000.0,0002.63,0001.14,0000.90
2021-12-11 12:50:00,,0821.8,5.00,0.00,22.3,22.9,00.0,31.2,24.1,04.6,0000.0,0002.57,0001.14,0000.91
2021-12-11 12:51:00,,0821.8,4.99,0.00,22.3,22.5,00.0,31.2,23.9,04.5,0000.0,0002.40,0001.15,0000.92
2021-12-11 12:52:00,,0821.8,4.99,0.00,22.2,22.1,00.0,31.2,23.8,04.6,0000.0,0002.59,0001.16,0000.92
2021-12-11 12:53:00,,0821.8,5.01,0.00,22.1,21.8,00.0,31.2,23.6,04.6,0000.0,0002.49,0001.14,0000.92
2021-12-11 12:54:00,,0821.8,5.00,0.00,22.0,21.5,00.0,31.2,23.5,04.6,0000.0,0002.49,0001.15,0000.93
2021-12-11 12:55:00,,0821.8,5.00,0.00,21.9,21.3,00.0,31.1,23.3,04.6,0000.0,0002.55,0001.17,0000.93
2021-12-11 12:56:00,,0822.0,5.01,0.00,21.9,21.1,00.0,31.1,23.2,04.7,0000.0,0002.62,0001.19,0000.94
2021-12-11 12:57:00,,0821.8,4.99,0.00,21.8,21.0,00.0,31.1,23.2,04.7,0000.0,0002.61,0001.19,0000.94
2021-12-11 12:58:00,,0821.8,5.00,0.00,21.8,21.0,00.0,31.0,23.2,04.7,0000.0,0002.63,0001.20,0000.95
2021-12-11 12:59:00,,0821.8,5.00,0.00,21.8,21.6,00.0,31.0,23.4,04.7,0000.0,0002.67,0001.21,0000.95
